Satellite: MET-3/5
Catalog number: 21655
Epoch time:      10300.66984241
Element set:     949
Inclination:      082.5598 deg
RA of node:       215.0253 deg
Eccentricity:    0.0014323
Arg of perigee:   023.0476 deg
Mean anomaly:     337.1309 deg
Mean motion:   13.17023411 rev/day
Decay rate:        5.1e-07 rev/day^2
Epoch rev:           92311
Checksum:              265

Satellite: MET-2/21
Catalog number: 22782
Epoch time:      10301.56527721
Element set:     923
Inclination:      082.5456 deg
RA of node:       146.6447 deg
Eccentricity:    0.0023286
Arg of perigee:   031.6473 deg
Mean anomaly:     328.6083 deg
Mean motion:   13.83649386 rev/day
Decay rate:        3.3e-07 rev/day^2
Epoch rev:           86652
Checksum:              312

Satellite: OKEAN-4
Catalog number: 23317
Epoch time:      10300.78356349
Element set:    0378
Inclination:      082.5420 deg
RA of node:       230.0830 deg
Eccentricity:    0.0022387
Arg of perigee:   160.3763 deg
Mean anomaly:     199.8340 deg
Mean motion:   14.82883751 rev/day
Decay rate:       4.33e-06 rev/day^2
Epoch rev:           86610
Checksum:              294

Satellite: NOAA-14
Catalog number: 23455
Epoch time:      10301.33339575
Element set:     246
Inclination:      098.8710 deg
RA of node:       021.0921 deg
Eccentricity:    0.0008786
Arg of perigee:   214.7116 deg
Mean anomaly:     145.3509 deg
Mean motion:   14.13798260 rev/day
Decay rate:        1.2e-07 rev/day^2
Epoch rev:           81631
Checksum:              279

Satellite: NOAA-15
Catalog number: 25338
Epoch time:      10301.29622088
Element set:     574
Inclination:      098.6330 deg
RA of node:       285.9285 deg
Eccentricity:    0.0011477
Arg of perigee:   050.6187 deg
Mean anomaly:     309.6026 deg
Mean motion:   14.24862396 rev/day
Decay rate:        3.9e-07 rev/day^2
Epoch rev:           64770
Checksum:              318

Satellite: RESURS
Catalog number: 25394
Epoch time:      10301.55068627
Element set:     637
Inclination:      098.3016 deg
RA of node:       312.3536 deg
Eccentricity:    0.0001164
Arg of perigee:   146.4263 deg
Mean anomaly:     213.6987 deg
Mean motion:   14.24213701 rev/day
Decay rate:        2.0e-07 rev/day^2
Epoch rev:           63933
Checksum:              268

Satellite: FENGYUN1
Catalog number: 25730
Epoch time:      10300.81238445
Element set:    0172
Inclination:      098.7976 deg
RA of node:       262.3871 deg
Eccentricity:    0.0020422
Arg of perigee:   253.2793 deg
Mean anomaly:     106.6146 deg
Mean motion:   14.08359604 rev/day
Decay rate:      1.109e-05 rev/day^2
Epoch rev:           59035
Checksum:              288

Satellite: OKEAN-0
Catalog number: 25860
Epoch time:      10300.88815886
Element set:    0135
Inclination:      097.8512 deg
RA of node:       269.2070 deg
Eccentricity:    0.0001685
Arg of perigee:   053.9009 deg
Mean anomaly:     306.2361 deg
Mean motion:   14.73675846 rev/day
Decay rate:       1.54e-06 rev/day^2
Epoch rev:           60644
Checksum:              302

Satellite: NOAA-16
Catalog number: 26536
Epoch time:      10301.53194052
Element set:      50
Inclination:      099.1640 deg
RA of node:       322.1099 deg
Eccentricity:    0.0010070
Arg of perigee:   326.3961 deg
Mean anomaly:     033.6569 deg
Mean motion:   14.12583853 rev/day
Decay rate:       2.37e-06 rev/day^2
Epoch rev:           52065
Checksum:              273

Satellite: NOAA-17
Catalog number: 27453
Epoch time:      10301.34155174
Element set:      40
Inclination:      098.4151 deg
RA of node:       346.3131 deg
Eccentricity:    0.0012727
Arg of perigee:   107.3453 deg
Mean anomaly:     252.9128 deg
Mean motion:   14.24202947 rev/day
Decay rate:        1.3e-07 rev/day^2
Epoch rev:           43365
Checksum:              259

Satellite: NOAA-18
Catalog number: 28654
Epoch time:      10301.36432412
Element set:     530
Inclination:      098.9662 deg
RA of node:       247.3312 deg
Eccentricity:    0.0015092
Arg of perigee:   040.2479 deg
Mean anomaly:     319.9812 deg
Mean motion:   14.11400503 rev/day
Decay rate:      -1.03e-06 rev/day^2
Epoch rev:           28022
Checksum:              258

Satellite: NOAA-19
Catalog number: 33591
Epoch time:      10301.38136714
Element set:     726
Inclination:      098.8010 deg
RA of node:       240.7398 deg
Eccentricity:    0.0013292
Arg of perigee:   273.0538 deg
Mean anomaly:     086.9107 deg
Mean motion:   14.11098688 rev/day
Decay rate:       3.71e-06 rev/day^2
Epoch rev:            8869
Checksum:              317

/EX
SB KEPS @ AMSAT  $ORB10301.M
Orbital Elements  10301.MISC

HR AMSAT ORBITAL ELEMENTS FOR MANNED AND MISCELLANEOUS SATELLITES
FROM WA5QGD FORT WORTH,TX October 28, 2010
BID: ORB10301.M
TO ALL RADIO AMATEURS BT

Satellite: HUBBLE
Catalog number: 20580
Epoch time:      10300.09759300
Element set:     668
Inclination:      028.4686 deg
RA of node:       098.6536 deg
Eccentricity:    0.0003467
Arg of perigee:   162.6448 deg
Mean anomaly:     197.4276 deg
Mean motion:   15.01074509 rev/day
Decay rate:       7.18e-06 rev/day^2
Epoch rev:           92459
Checksum:              316

Satellite: ISS
Catalog number: 25544
Epoch time:      10301.84623521
Element set:     166
Inclination:      051.6474 deg
RA of node:       266.7289 deg
Eccentricity:    0.0008632
Arg of perigee:   132.6333 deg
Mean anomaly:     310.7307 deg
Mean motion:   15.71999554 rev/day
Decay rate:     3.1767e-04 rev/day^2
Epoch rev:           68449
Checksum:              314

